Location: Parc des �les de St-Timoth�e
(45.2924°N, 74.0481°W)
Time: 15:14:14
(UTC-04:00)

ISS - All Passes

Search period start: 30 July 2014 00:00
Search period end: 09 August 2014 00:00
Orbit: 411 x 419 km, 51.6° (Epoch: 30 July)

Date Brightness Start Highest point End Pass type
(mag) Time Alt. Az. Time Alt. Az. Time Alt. Az.
30 Jul - 01:19:30 10° W 01:22:41 39° NNW 01:25:52 10° NE visible
30 Jul - 02:57:03 10° WNW 02:59:58 26° N 03:02:53 10° ENE visible
30 Jul - 04:33:53 10° NW 04:37:11 50° NNE 04:40:29 10° E visible
30 Jul - 06:10:48 10° WNW 06:13:48 30° SW 06:16:46 10° SSE daylight
30 Jul - 22:54:17 10° SSW 22:57:11 28° SE 23:00:06 10° ENE night (unlit)
31 Jul - 00:30:29 10° W 00:33:46 52° NNW 00:37:04 10° NE visible
31 Jul - 02:08:03 10° WNW 02:10:58 27° N 02:13:53 10° ENE visible
31 Jul - 03:45:05 10° NW 03:48:16 38° NNE 03:51:26 10° E visible
31 Jul - 05:21:48 10° WNW 05:25:04 49° SW 05:28:19 10° SE daylight
31 Jul - 22:06:14 10° S 22:08:31 17° SE 22:10:48 10° E night (unlit)
31 Jul - 23:41:33 10° WSW 23:44:53 77° NNW 23:48:15 10° ENE visible
01 Aug - 01:18:59 10° WNW 01:21:58 28° N 01:24:57 10° NE visible
01 Aug - 02:56:14 10° NW 02:59:18 31° NNE 03:02:21 10° ENE visible
01 Aug - 04:32:54 10° WNW 04:36:16 80° SSW 04:39:38 10° SE visible
01 Aug - 06:11:00 10° WSW 06:12:30 12° SW 06:13:59 10° SSW daylight
01 Aug - 21:19:22 10° SE 21:19:54 10° SE 21:20:26 10° ESE visible
01 Aug - 22:52:44 10° SW 22:56:03 69° SSE 22:59:23 10° ENE night (unlit)
02 Aug - 00:29:53 10° W 00:32:58 33° NNW 00:36:04 10° NE visible
02 Aug - 02:07:20 10° NW 02:10:18 28° N 02:13:15 10° ENE visible
02 Aug - 03:44:04 10° WNW 03:47:25 68° NNE 03:50:46 10° ESE visible
02 Aug - 05:21:17 10° W 05:23:51 20° SW 05:26:25 10° S daylight
02 Aug - 22:04:06 10° SW 22:07:15 41° SE 22:10:27 10° ENE visible
02 Aug - 23:40:48 10° W 23:44:00 41° NNW 23:47:12 10° NE visible
03 Aug - 01:18:22 10° WNW 01:21:16 26° N 01:24:11 10° ENE visible
03 Aug - 02:55:14 10° NW 02:58:30 47° NNE 03:01:46 10° E visible
03 Aug - 04:32:05 10° WNW 04:35:09 33° SW 04:38:12 10° SSE visible
03 Aug - 21:15:43 10° SSW 21:18:31 25° SE 21:21:21 10° E visible
03 Aug - 22:51:46 10° WSW 22:55:03 56° NNW 22:58:22 10° NE visible
04 Aug - 00:29:19 10° WNW 00:32:14 27° N 00:35:10 10° ENE visible
04 Aug - 02:06:23 10° NW 02:09:32 36° NNE 02:12:41 10° E visible
04 Aug - 03:43:05 10° WNW 03:46:23 54° SW 03:49:40 10° SE visible
04 Aug - 20:27:46 10° S 20:29:50 16° SE 20:31:55 10° E daylight
04 Aug - 22:02:49 10° WSW 22:06:09 84° NNW 22:09:31 10° ENE visible
04 Aug - 23:40:13 10° WNW 23:43:12 29° N 23:46:12 10° NE visible
05 Aug - 01:17:30 10° NW 01:20:32 30° N 01:23:34 10° ENE visible
05 Aug - 02:54:10 10° WNW 02:57:32 87° SSW 03:00:54 10° ESE night (unlit)
05 Aug - 04:32:01 10° W 04:33:48 14° SW 04:35:36 10° SSW visible
05 Aug - 21:14:01 10° SW 21:17:18 62° SSE 21:20:37 10° ENE visible
05 Aug - 22:51:05 10° W 22:54:11 34° NNW 22:57:17 10° NE visible
06 Aug - 00:28:34 10° NW 00:31:30 27° N 00:34:26 10° ENE visible
06 Aug - 02:05:18 10° WNW 02:08:38 62° NNE 02:11:58 10° ESE night (unlit)
06 Aug - 03:42:26 10° W 03:45:07 22° SW 03:47:48 10° S night (unlit)
06 Aug - 20:25:24 10° SSW 20:28:30 37° SE 20:31:37 10° ENE daylight
06 Aug - 22:01:59 10° W 22:05:11 43° NNW 22:08:25 10° NE visible
06 Aug - 23:39:33 10° WNW 23:42:26 26° N 23:45:20 10° ENE visible
07 Aug - 01:16:27 10° NW 01:19:41 44° NNE 01:22:55 10° E visible
07 Aug - 02:53:15 10° WNW 02:56:22 36° SW 02:59:29 10° SSE night (unlit)
07 Aug - 19:37:03 10° SSW 19:39:44 23° SE 19:42:26 10° E daylight
07 Aug - 21:12:55 10° WSW 21:16:13 61° NNW 21:19:33 10° ENE visible
07 Aug - 22:50:27 10° WNW 22:53:22 27° N 22:56:18 10° NE visible
08 Aug - 00:27:34 10° NW 00:30:41 35° NNE 00:33:48 10° E visible
08 Aug - 02:04:14 10° WNW 02:07:33 60° SW 02:10:52 10° SE night (unlit)
08 Aug - 18:49:12 10° SSE 18:51:02 14° SE 18:52:51 10° E daylight
08 Aug - 20:23:58 10° WSW 20:27:18 89° SSE 20:30:39 10° ENE daylight
08 Aug - 22:01:19 10° WNW 22:04:18 30° N 22:07:19 10° NE visible
08 Aug - 23:38:39 10° NW 23:41:38 29° N 23:44:38 10° ENE visible
